Tracking 29594 objects as of 20-Sep-2024
HD Live streaming from Space Station
objects crossing your sky now

FENGYUN 1C DEB

Track FENGYUN 1C DEB now!
10-day predictions


NORAD ID: 29805
Int'l Code: 1999-025CX
Perigee: 859.4 km
Apogee: 1,136.6 km
Inclination: 99.5 °
Period: 104.9 minutes
Semi major axis: 7369 km
RCS: 0.0153 m2 (small)
Launch date: May 10, 1999
Source: People's Republic of China (PRC)
Launch site: Taiyaun Space Center, China (TSC)

Note: This is SATELLITE DEBRIS
Your satellite tracking list
Your tracking list is empty




NASA's NSSDC Master Catalog

Two Line Element Set (TLE):
1 29805U 99025CX  24264.09977861  .00000270  00000-0  30432-3 0  9998
2 29805  99.5208 313.6745 0188096 316.4261  42.2159 13.72418627885581
Source of the keplerian elements: AFSPC